DLH054 EDDF-EDDV

Flight info

Callsign DLH054
Flight time 0h 33m
Altitude 21000
Route MARUN9S MARUN Y153 WRB WRB1Z
Aircraft A321/M-SDE3FGHIRWY/LB1

Departure

Time 2026-05-06 02:46
Airport Frankfurt Main Airport (EDDF)

Arrival

Time 2026-05-06 03:19
Airport Hannover Airport (EDDV)
Time Latitude Longitude Altitude Speed Heading
2026-05-06 02:40 50.04883 8.57099 356 ft 5 kts 201°
2026-05-06 02:40 50.04840 8.57066 361 ft 8 kts 204°
2026-05-06 02:40 50.04781 8.57024 361 ft 11 kts 204°
2026-05-06 02:41 50.04706 8.56970 357 ft 13 kts 205°
2026-05-06 02:41 50.04620 8.56914 358 ft 14 kts 197°
2026-05-06 02:41 50.04530 8.56881 359 ft 12 kts 193°
2026-05-06 02:41 50.04483 8.56958 361 ft 13 kts 78°
2026-05-06 02:42 50.04517 8.57107 359 ft 16 kts 70°
2026-05-06 02:42 50.04557 8.57273 362 ft 17 kts 70°
2026-05-06 02:42 50.04595 8.57448 359 ft 15 kts 85°
2026-05-06 02:42 50.04528 8.57538 362 ft 13 kts 154°
2026-05-06 02:43 50.04469 8.57630 366 ft 12 kts 110°
2026-05-06 02:43 50.04482 8.57766 366 ft 15 kts 70°
2026-05-06 02:43 50.04526 8.57944 364 ft 20 kts 71°
2026-05-06 02:43 50.04575 8.58155 367 ft 21 kts 70°
2026-05-06 02:44 50.04624 8.58360 369 ft 20 kts 70°
2026-05-06 02:44 50.04658 8.58529 374 ft 9 kts 96°
2026-05-06 02:44 50.04608 8.58581 369 ft 10 kts 159°
2026-05-06 02:44 50.04544 8.58617 372 ft 10 kts 160°
2026-05-06 02:45 50.04494 8.58616 371 ft 5 kts 241°
2026-05-06 02:45 50.04482 8.58568 370 ft 8 kts 249°
2026-05-06 02:45 50.04362 8.58065 370 ft 86 kts 250°
2026-05-06 02:45 50.04068 8.56838 364 ft 153 kts 250°
2026-05-06 02:46 50.03656 8.55163 779 ft 172 kts 246°
2026-05-06 02:46 50.03226 8.53411 1543 ft 173 kts 248°
2026-05-06 02:46 50.02811 8.51595 1950 ft 184 kts 251°
2026-05-06 02:46 50.02691 8.50245 2275 ft 192 kts 269°
2026-05-06 02:47 50.02811 8.48078 2653 ft 208 kts 273°
2026-05-06 02:47 50.02964 8.45828 3341 ft 210 kts 274°
2026-05-06 02:47 50.02922 8.43572 4011 ft 220 kts 259°
2026-05-06 02:47 50.02638 8.41113 4458 ft 240 kts 259°
2026-05-06 02:48 50.02339 8.38511 5157 ft 248 kts 262°
2026-05-06 02:48 50.02595 8.35852 5910 ft 258 kts 294°
2026-05-06 02:48 50.03828 8.33754 6662 ft 270 kts 320°
2026-05-06 02:48 50.05441 8.32183 7434 ft 276 kts 327°
2026-05-06 02:49 50.07172 8.30820 8205 ft 281 kts 330°
2026-05-06 02:49 50.08950 8.29494 8965 ft 285 kts 330°
2026-05-06 02:49 50.10808 8.28307 9725 ft 294 kts 342°
2026-05-06 02:49 50.12861 8.27946 10419 ft 303 kts 359°
2026-05-06 02:50 50.14984 8.28518 10833 ft 323 kts 17°
2026-05-06 02:50 50.17089 8.30109 10975 ft 348 kts 27°
2026-05-06 02:50 50.19269 8.31991 11267 ft 365 kts 27°
2026-05-06 02:50 50.21515 8.33936 11831 ft 370 kts 27°
2026-05-06 02:51 50.23749 8.35871 12484 ft 374 kts 27°
2026-05-06 02:51 50.26037 8.37849 13148 ft 378 kts 27°
2026-05-06 02:51 50.28350 8.39839 13801 ft 381 kts 26°
2026-05-06 02:51 50.30802 8.41441 14370 ft 383 kts 17°
2026-05-06 02:52 50.33325 8.42813 14959 ft 386 kts 17°
2026-05-06 02:52 50.35877 8.44197 15550 ft 388 kts 18°
2026-05-06 02:52 50.38442 8.45587 16151 ft 391 kts 18°
2026-05-06 02:52 50.41032 8.46998 16733 ft 395 kts 18°
2026-05-06 02:53 50.43635 8.48427 17310 ft 398 kts 18°
2026-05-06 02:53 50.46262 8.49871 17879 ft 401 kts 18°
2026-05-06 02:53 50.48913 8.51296 18391 ft 404 kts 17°
2026-05-06 02:53 50.51603 8.52642 18875 ft 407 kts 17°
2026-05-06 02:54 50.54321 8.53933 19359 ft 409 kts 16°
2026-05-06 02:54 50.57026 8.55177 19838 ft 411 kts 15°
2026-05-06 02:54 50.59782 8.56443 20358 ft 413 kts 16°
2026-05-06 02:54 50.62544 8.57729 20698 ft 415 kts 16°
2026-05-06 02:55 50.65310 8.59041 20775 ft 418 kts 17°
2026-05-06 02:55 50.68104 8.60386 20784 ft 420 kts 17°
2026-05-06 02:55 50.70899 8.61744 20783 ft 420 kts 17°
2026-05-06 02:55 50.73698 8.63105 20787 ft 420 kts 17°
2026-05-06 02:56 50.76494 8.64463 20786 ft 420 kts 17°
2026-05-06 02:56 50.79292 8.65821 20780 ft 420 kts 17°
2026-05-06 02:56 50.82088 8.67184 20782 ft 420 kts 17°
2026-05-06 02:56 50.84853 8.68691 20783 ft 420 kts 20°
2026-05-06 02:57 50.87583 8.70363 20781 ft 420 kts 21°
2026-05-06 02:57 50.90285 8.72130 20781 ft 420 kts 22°
2026-05-06 02:57 50.92979 8.73934 20786 ft 420 kts 22°
2026-05-06 02:57 50.95676 8.75737 20782 ft 421 kts 22°
2026-05-06 02:58 50.98380 8.77512 20777 ft 420 kts 22°
2026-05-06 02:58 51.01089 8.79258 20776 ft 421 kts 21°
2026-05-06 02:58 51.03803 8.80985 20775 ft 421 kts 21°
2026-05-06 02:58 51.06523 8.82702 20777 ft 421 kts 21°
2026-05-06 02:59 51.09245 8.84418 20774 ft 421 kts 21°
2026-05-06 02:59 51.11962 8.86139 20772 ft 421 kts 21°
2026-05-06 02:59 51.14684 8.87872 20769 ft 421 kts 21°
2026-05-06 02:59 51.17367 8.89590 20776 ft 421 kts 21°
2026-05-06 03:00 51.20080 8.91338 20771 ft 421 kts 21°
2026-05-06 03:00 51.22793 8.93092 20770 ft 421 kts 21°
2026-05-06 03:00 51.25508 8.94846 20776 ft 420 kts 22°
2026-05-06 03:00 51.28225 8.96595 20780 ft 420 kts 22°
2026-05-06 03:01 51.30936 8.98335 20784 ft 420 kts 22°
2026-05-06 03:01 51.33647 9.00081 20791 ft 420 kts 22°
2026-05-06 03:01 51.36351 9.01832 20792 ft 420 kts 22°
2026-05-06 03:01 51.39059 9.03591 20787 ft 420 kts 22°
2026-05-06 03:02 51.41765 9.05350 20787 ft 419 kts 22°
2026-05-06 03:02 51.44464 9.07108 20785 ft 419 kts 22°
2026-05-06 03:02 51.47171 9.08873 20789 ft 419 kts 22°
2026-05-06 03:02 51.49868 9.10668 20787 ft 419 kts 25°
2026-05-06 03:03 51.52409 9.12944 20791 ft 418 kts 33°
2026-05-06 03:03 51.54867 9.15460 20789 ft 419 kts 33°
2026-05-06 03:03 51.57323 9.17971 20792 ft 419 kts 33°
2026-05-06 03:03 51.59781 9.20485 20792 ft 419 kts 33°
2026-05-06 03:04 51.62210 9.22969 20795 ft 419 kts 33°
2026-05-06 03:04 51.64675 9.25490 20584 ft 409 kts 33°
2026-05-06 03:04 51.67021 9.27889 20314 ft 402 kts 33°
2026-05-06 03:04 51.69355 9.30284 19882 ft 394 kts 32°
2026-05-06 03:05 51.71652 9.32649 19408 ft 389 kts 32°
2026-05-06 03:05 51.73917 9.34980 18951 ft 383 kts 32°
2026-05-06 03:05 51.76150 9.37279 18485 ft 378 kts 32°
2026-05-06 03:05 51.78347 9.39542 18002 ft 374 kts 32°
2026-05-06 03:06 51.80524 9.41788 17495 ft 369 kts 32°
2026-05-06 03:06 51.82675 9.44013 17020 ft 364 kts 32°
2026-05-06 03:06 51.84786 9.46203 16551 ft 359 kts 33°
2026-05-06 03:06 51.86875 9.48372 16068 ft 355 kts 33°
2026-05-06 03:07 51.88947 9.50525 15603 ft 353 kts 32°
2026-05-06 03:07 51.91009 9.52670 15134 ft 350 kts 33°
2026-05-06 03:07 51.93050 9.54792 14665 ft 347 kts 33°
2026-05-06 03:07 51.95076 9.56901 14192 ft 345 kts 34°
2026-05-06 03:08 51.97083 9.58994 13724 ft 342 kts 34°
2026-05-06 03:08 51.99080 9.61078 13221 ft 340 kts 34°
2026-05-06 03:08 52.01059 9.63147 12757 ft 337 kts 34°
2026-05-06 03:08 52.03019 9.65203 12289 ft 334 kts 34°
2026-05-06 03:09 52.04965 9.67240 11827 ft 331 kts 34°
2026-05-06 03:09 52.06892 9.69257 11365 ft 329 kts 34°
2026-05-06 03:09 52.08806 9.71265 10918 ft 326 kts 34°
2026-05-06 03:09 52.10701 9.73259 10567 ft 320 kts 34°
2026-05-06 03:10 52.12524 9.75175 10417 ft 306 kts 35°
2026-05-06 03:10 52.14279 9.77017 10238 ft 295 kts 35°
2026-05-06 03:10 52.15979 9.78804 10028 ft 287 kts 36°
2026-05-06 03:10 52.17657 9.80571 10009 ft 288 kts 34°
2026-05-06 03:11 52.19337 9.82342 9981 ft 288 kts 35°
2026-05-06 03:11 52.21027 9.84128 9547 ft 290 kts 35°
2026-05-06 03:11 52.22713 9.85910 9092 ft 288 kts 35°
2026-05-06 03:11 52.24388 9.87682 8648 ft 286 kts 35°
2026-05-06 03:12 52.26052 9.89459 8219 ft 285 kts 36°
2026-05-06 03:12 52.27696 9.91279 7775 ft 284 kts 36°
2026-05-06 03:12 52.29310 9.93098 7249 ft 278 kts 37°
2026-05-06 03:12 52.30895 9.94894 6762 ft 279 kts 36°
2026-05-06 03:13 52.32493 9.96708 6313 ft 280 kts 36°
2026-05-06 03:13 52.34067 9.98491 6137 ft 267 kts 37°
2026-05-06 03:13 52.35525 10.00136 5911 ft 245 kts 36°
2026-05-06 03:13 52.36909 10.01695 5391 ft 238 kts 36°
2026-05-06 03:14 52.38276 10.03120 4829 ft 235 kts 28°
2026-05-06 03:14 52.39830 10.04016 4648 ft 235 kts 14°
2026-05-06 03:14 52.41479 10.04194 4260 ft 237 kts 355°
2026-05-06 03:14 52.42978 10.03515 4105 ft 221 kts 337°
2026-05-06 03:15 52.44249 10.02155 3994 ft 214 kts 320°
2026-05-06 03:15 52.45175 10.00348 3815 ft 203 kts 303°
2026-05-06 03:15 52.45740 9.98251 3598 ft 201 kts 286°
2026-05-06 03:15 52.45931 9.95978 3341 ft 203 kts 272°
2026-05-06 03:16 52.46000 9.93667 3081 ft 203 kts 272°
2026-05-06 03:16 52.46071 9.91364 2802 ft 201 kts 273°
2026-05-06 03:16 52.46139 9.89105 2527 ft 196 kts 273°
2026-05-06 03:16 52.46204 9.86893 2260 ft 191 kts 274°
2026-05-06 03:17 52.46267 9.84756 2023 ft 187 kts 274°
2026-05-06 03:17 52.46328 9.82676 1753 ft 176 kts 275°
2026-05-06 03:17 52.46385 9.80716 1515 ft 169 kts 275°
2026-05-06 03:17 52.46440 9.78815 1283 ft 165 kts 275°
2026-05-06 03:18 52.46494 9.76977 1059 ft 161 kts 274°
2026-05-06 03:18 52.46546 9.75157 829 ft 154 kts 275°
2026-05-06 03:18 52.46600 9.73449 647 ft 150 kts 274°
2026-05-06 03:18 52.46640 9.71761 435 ft 147 kts 272°
2026-05-06 03:19 52.46688 9.70094 217 ft 146 kts 274°
2026-05-06 03:19 52.46737 9.68572 180 ft 106 kts 271°
2026-05-06 03:19 52.46753 9.67816 180 ft 43 kts 272°
2026-05-06 03:19 52.46767 9.67345 179 ft 35 kts 273°
2026-05-06 03:20 52.46681 9.66741 180 ft 19 kts 252°
2026-05-06 03:20 52.46581 9.66693 179 ft 18 kts 141°
2026-05-06 03:20 52.46556 9.66881 180 ft 18 kts 93°
2026-05-06 03:21 52.46549 9.67086 182 ft 18 kts 92°
2026-05-06 03:21 52.46545 9.67285 185 ft 17 kts 92°
2026-05-06 03:21 52.46540 9.67495 183 ft 20 kts 92°
2026-05-06 03:21 52.46533 9.67726 182 ft 21 kts 94°
2026-05-06 03:22 52.46526 9.67979 179 ft 25 kts 92°
2026-05-06 03:22 52.46492 9.68207 180 ft 16 kts 139°
2026-05-06 03:22 52.46399 9.68324 180 ft 18 kts 142°
2026-05-06 03:22 52.46297 9.68452 182 ft 19 kts 142°
2026-05-06 03:23 52.46185 9.68592 180 ft 21 kts 142°
2026-05-06 03:23 52.46063 9.68747 178 ft 20 kts 142°
2026-05-06 03:23 52.45946 9.68893 177 ft 22 kts 142°
2026-05-06 03:23 52.45855 9.69006 177 ft 15 kts 135°
2026-05-06 03:24 52.45836 9.69162 178 ft 15 kts 127°
2026-05-06 03:24 52.45810 9.69262 179 ft 8 kts 58°
2026-05-06 03:24 52.45833 9.69313 178 ft 1 kts 52°
2026-05-06 03:24 52.45834 9.69314 178 ft 0 kts 52°